When you browse on this site, cookies collect data to enhance your experience and personalize the content and advertising you see.
Visit our Privacy Policy to learn more. By continuing to use the site, you agree to this use of cookies and data.
  • In Schweiz
  • Länderverzeichnis
  • Für 7 Tage
  • Wassertemperatur
  • Wetterkarte
  • Widgets
  • user-avatar
    Anmelden

    Stündliche Wetter Richmond

    Heute, 29 Mai, Freitag

    Zeit Temperatur Niederschläge Wind Luftdruck Luftfeuchtigkeit
    00:00 +25°C° 0.3 mm 3 m/S 759 mmHg 92%
    01:00 +24°C° 0.3 mm 3 m/S 759 mmHg 93%
    02:00 +24°C° 0.2 mm 3 m/S 759 mmHg 94%
    03:00 +24°C° 0.2 mm 3 m/S 759 mmHg 94%
    04:00 +22°C° 0.2 mm 3 m/S 759 mmHg 95%
    05:00 +24°C° 0 mm 3 m/S 759 mmHg 94%
    06:00 +24°C° 0 mm 3 m/S 759 mmHg 93%
    07:00 +25°C° 0 mm 3 m/S 759 mmHg 92%
    08:00 +26°C° 0 mm 3 m/S 759 mmHg 86%
    09:00 +27°C° 0 mm 3 m/S 759 mmHg 81%
    10:00 +28°C° 0 mm 3 m/S 759 mmHg 76%
    11:00 +30°C° 0 mm 3 m/S 758 mmHg 67%
    12:00 +33°C° 0 mm 3 m/S 758 mmHg 58%
    13:00 +35°C° 0 mm 4 m/S 758 mmHg 49%
    14:00 +33°C° 0.2 mm 4 m/S 757 mmHg 56%
    15:00 +30°C° 0.2 mm 4 m/S 757 mmHg 64%
    16:00 +29°C° 0.2 mm 5 m/S 757 mmHg 71%
    17:00 +28°C° 0 mm 4 m/S 757 mmHg 70%
    18:00 +27°C° 0 mm 4 m/S 757 mmHg 69%
    19:00 +26°C° 0 mm 4 m/S 757 mmHg 68%
    20:00 +26°C° 0 mm 4 m/S 757 mmHg 71%
    21:00 +25°C° 0 mm 3 m/S 757 mmHg 74%
    22:00 +24°C° 0 mm 3 m/S 757 mmHg 77%
    23:00 +24°C° 0 mm 3 m/S 757 mmHg 79%

    Morgen, 30 Mai, Samstag

    Zeit Temperatur Niederschläge Wind Luftdruck Luftfeuchtigkeit
    00:00 +24°C° 0 mm 3 m/S 757 mmHg 81%
    01:00 +22°C° 0 mm 3 m/S 757 mmHg 83%
    02:00 +23°C° 0 mm 2 m/S 757 mmHg 87%
    03:00 +21°C° 0 mm 2 m/S 756 mmHg 90%
    04:00 +21°C° 0 mm 2 m/S 756 mmHg 93%
    05:00 +21°C° 0 mm 2 m/S 756 mmHg 91%
    06:00 +23°C° 0 mm 2 m/S 756 mmHg 89%
    07:00 +24°C° 0 mm 2 m/S 757 mmHg 87%
    08:00 +25°C° 0.1 mm 2 m/S 757 mmHg 79%
    09:00 +26°C° 0.1 mm 2 m/S 757 mmHg 71%
    10:00 +28°C° 0.1 mm 3 m/S 757 mmHg 63%
    11:00 +28°C° 0.4 mm 3 m/S 757 mmHg 61%
    12:00 +28°C° 0.4 mm 3 m/S 756 mmHg 59%
    13:00 +29°C° 0.4 mm 3 m/S 756 mmHg 56%
    14:00 +29°C° 0.1 mm 3 m/S 756 mmHg 53%
    15:00 +29°C° 0.1 mm 2 m/S 755 mmHg 49%
    16:00 +29°C° 0.1 mm 2 m/S 755 mmHg 46%
    17:00 +27°C° 0 mm 2 m/S 755 mmHg 52%
    18:00 +26°C° 0 mm 1 m/S 756 mmHg 57%
    19:00 +25°C° 0 mm 1 m/S 756 mmHg 63%
    20:00 +24°C° 0 mm 2 m/S 756 mmHg 61%
    21:00 +22°C° 0 mm 3 m/S 757 mmHg 60%
    22:00 +21°C° 0 mm 3 m/S 757 mmHg 59%
    23:00 +20°C° 0 mm 3 m/S 758 mmHg 60%

    übermorgen, 31 Mai, Sonntag

    Zeit Temperatur Niederschläge Wind Luftdruck Luftfeuchtigkeit
    00:00 +19°C° 0 mm 4 m/S 758 mmHg 62%
    01:00 +18°C° 0 mm 4 m/S 758 mmHg 63%
    02:00 +18°C° 0 mm 4 m/S 758 mmHg 61%
    03:00 +17°C° 0 mm 4 m/S 759 mmHg 59%
    04:00 +15°C° 0 mm 5 m/S 759 mmHg 57%
    05:00 +15°C° 0 mm 5 m/S 760 mmHg 56%
    06:00 +15°C° 0 mm 5 m/S 760 mmHg 55%
    07:00 +14°C° 0 mm 5 m/S 761 mmHg 53%
    08:00 +16°C° 0 mm 5 m/S 761 mmHg 48%
    09:00 +18°C° 0 mm 4 m/S 761 mmHg 43%
    10:00 +19°C° 0 mm 4 m/S 762 mmHg 38%
    11:00 +20°C° 0 mm 4 m/S 761 mmHg 36%
    12:00 +21°C° 0 mm 4 m/S 761 mmHg 33%
    13:00 +22°C° 0 mm 4 m/S 761 mmHg 31%
    14:00 +24°C° 0 mm 3 m/S 760 mmHg 31%
    15:00 +24°C° 0 mm 3 m/S 760 mmHg 31%
    16:00 +24°C° 0 mm 3 m/S 759 mmHg 30%
    17:00 +21°C° 0 mm 3 m/S 760 mmHg 38%
    18:00 +20°C° 0 mm 2 m/S 760 mmHg 46%
    19:00 +18°C° 0 mm 2 m/S 760 mmHg 54%
    20:00 +17°C° 0 mm 2 m/S 761 mmHg 55%
    21:00 +16°C° 0 mm 1 m/S 761 mmHg 56%
    22:00 +15°C° 0 mm 1 m/S 762 mmHg 58%
    23:00 +14°C° 0 mm 1 m/S 762 mmHg 60%

    1 Juni, Montag

    Zeit Temperatur Niederschläge Wind Luftdruck Luftfeuchtigkeit
    00:00 +14°C° 0 mm 2 m/S 762 mmHg 63%
    01:00 +13°C° 0 mm 2 m/S 762 mmHg 66%
    02:00 +12°C° 0 mm 2 m/S 763 mmHg 66%
    03:00 +12°C° 0 mm 2 m/S 763 mmHg 66%
    04:00 +10°C° 0 mm 2 m/S 763 mmHg 65%
    05:00 +12°C° 0 mm 2 m/S 764 mmHg 64%
    06:00 +13°C° 0 mm 2 m/S 764 mmHg 62%
    07:00 +14°C° 0 mm 2 m/S 765 mmHg 61%
    08:00 +17°C° 0 mm 2 m/S 765 mmHg 53%
    09:00 +19°C° 0 mm 2 m/S 765 mmHg 46%
    10:00 +21°C° 0 mm 2 m/S 765 mmHg 38%
    11:00 +23°C° 0 mm 2 m/S 765 mmHg 34%
    12:00 +24°C° 0 mm 2 m/S 764 mmHg 30%
    13:00 +25°C° 0 mm 2 m/S 764 mmHg 26%
    14:00 +25°C° 0 mm 2 m/S 763 mmHg 27%
    15:00 +25°C° 0 mm 2 m/S 763 mmHg 27%
    16:00 +25°C° 0 mm 2 m/S 763 mmHg 28%
    17:00 +24°C° 0 mm 1 m/S 763 mmHg 35%
    18:00 +22°C° 0 mm 1 m/S 763 mmHg 43%
    19:00 +18°C° 0 mm 0 m/S 763 mmHg 50%
    20:00 +17°C° 0 mm 0 m/S 763 mmHg 52%
    21:00 +18°C° 0 mm 1 m/S 764 mmHg 54%
    22:00 +15°C° 0 mm 1 m/S 764 mmHg 55%
    23:00 +15°C° 0 mm 1 m/S 764 mmHg 58%

    2 Juni, Dienstag

    Zeit Temperatur Niederschläge Wind Luftdruck Luftfeuchtigkeit
    00:00 +13°C° 0 mm 0 m/S 764 mmHg 61%
    01:00 +13°C° 0 mm 0 m/S 764 mmHg 63%
    02:00 +13°C° 0 mm 1 m/S 764 mmHg 64%
    03:00 +13°C° 0 mm 1 m/S 765 mmHg 64%
    04:00 +13°C° 0 mm 1 m/S 765 mmHg 64%
    05:00 +14°C° 0 mm 1 m/S 765 mmHg 63%
    06:00 +15°C° 0 mm 1 m/S 765 mmHg 61%
    07:00 +16°C° 0 mm 1 m/S 765 mmHg 60%
    08:00 +20°C° 0 mm 1 m/S 765 mmHg 53%
    09:00 +23°C° 0 mm 1 m/S 765 mmHg 45%
    10:00 +25°C° 0 mm 1 m/S 765 mmHg 38%
    11:00 +26°C° 0 mm 2 m/S 764 mmHg 38%
    12:00 +27°C° 0 mm 2 m/S 764 mmHg 37%
    13:00 +28°C° 0 mm 3 m/S 763 mmHg 37%
    14:00 +28°C° 0 mm 3 m/S 763 mmHg 39%
    15:00 +28°C° 0 mm 3 m/S 763 mmHg 41%
    16:00 +28°C° 0 mm 2 m/S 762 mmHg 43%
    17:00 +26°C° 0 mm 2 m/S 762 mmHg 51%
    18:00 +25°C° 0 mm 2 m/S 762 mmHg 59%
    19:00 +23°C° 0 mm 1 m/S 762 mmHg 67%
    20:00 +21°C° 0 mm 2 m/S 762 mmHg 71%
    21:00 +20°C° 0 mm 2 m/S 762 mmHg 75%
    22:00 +19°C° 0 mm 2 m/S 762 mmHg 79%
    23:00 +19°C° 0 mm 3 m/S 762 mmHg 80%

    3 Juni, Mittwoch

    Zeit Temperatur Niederschläge Wind Luftdruck Luftfeuchtigkeit
    00:00 +19°C° 0 mm 3 m/S 762 mmHg 80%
    01:00 +19°C° 0 mm 3 m/S 761 mmHg 81%
    02:00 +19°C° 0 mm 3 m/S 761 mmHg 80%
    03:00 +18°C° 0 mm 3 m/S 761 mmHg 78%
    04:00 +18°C° 0 mm 3 m/S 761 mmHg 77%
    05:00 +19°C° 0 mm 3 m/S 761 mmHg 76%
    06:00 +19°C° 0 mm 3 m/S 761 mmHg 75%
    07:00 +19°C° 0 mm 3 m/S 761 mmHg 74%
    08:00 +21°C° 0 mm 3 m/S 761 mmHg 71%
    09:00 +22°C° 0 mm 3 m/S 761 mmHg 68%
    10:00 +25°C° 0 mm 3 m/S 761 mmHg 65%
    11:00 +26°C° 0.1 mm 3 m/S 760 mmHg 61%
    12:00 +28°C° 0.1 mm 3 m/S 759 mmHg 58%
    13:00 +30°C° 0.1 mm 4 m/S 759 mmHg 54%
    14:00 +30°C° 0.5 mm 4 m/S 758 mmHg 56%
    15:00 +30°C° 0.5 mm 4 m/S 758 mmHg 57%
    16:00 +30°C° 0.5 mm 4 m/S 757 mmHg 59%
    17:00 +29°C° 0 mm 4 m/S 757 mmHg 63%
    18:00 +28°C° 0 mm 4 m/S 757 mmHg 67%
    19:00 +27°C° 0 mm 3 m/S 757 mmHg 71%
    20:00 +26°C° 0 mm 4 m/S 757 mmHg 72%
    21:00 +26°C° 0 mm 4 m/S 757 mmHg 73%
    22:00 +25°C° 0 mm 4 m/S 757 mmHg 75%
    23:00 +23°C° 0.7 mm 4 m/S 757 mmHg 80%
    Mehr zeigen